Time,TemperatureF,DewpointF,PressureIn,WindDirection,WindDirectionDegrees,WindSpeedMPH,WindSpeedGustMPH,Humidity,HourlyPrecipIn,Conditions,Clouds,dailyrainin,SoftwareType,DateUTC
2013-10-04 00:03:00,68.2,32.0,29.97,NNE,29,5.0,0.0,26,0.00,,,0.00,WeatherTracker,2013-10-04 07:03:00,
2013-10-04 00:08:00,68.2,31.0,29.97,ENE,59,12.0,0.0,25,0.00,,,0.00,WeatherTracker,2013-10-04 07:08:00,
2013-10-04 00:13:00,68.3,31.1,29.97,NE,46,10.0,0.0,25,0.00,,,0.00,WeatherTracker,2013-10-04 07:13:00,
2013-10-04 00:18:00,68.3,31.1,29.97,NE,44,9.0,0.0,25,0.00,,,0.00,WeatherTracker,2013-10-04 07:18:00,
2013-10-04 00:23:00,68.3,31.1,29.97,ENE,59,2.0,0.0,25,0.00,,,0.00,WeatherTracker,2013-10-04 07:23:00,
2013-10-04 00:28:00,68.2,31.0,29.98,NNE,33,1.0,0.0,25,0.00,,,0.00,WeatherTracker,2013-10-04 07:28:00,
2013-10-04 00:33:00,68.3,31.1,29.98,ENE,57,0.0,0.0,25,0.00,,,0.00,WeatherTracker,2013-10-04 07:33:00,
2013-10-04 00:38:00,68.3,31.1,29.98,NE,41,5.0,0.0,25,0.00,,,0.00,WeatherTracker,2013-10-04 07:38:00,
2013-10-04 00:43:00,68.2,31.0,29.98,NE,39,3.0,0.0,25,0.00,,,0.00,WeatherTracker,2013-10-04 07:43:00,
2013-10-04 00:48:00,68.3,31.1,29.98,NE,36,6.0,0.0,25,0.00,,,0.00,WeatherTracker,2013-10-04 07:48:00,
2013-10-04 00:53:00,68.1,32.9,29.98,NW,317,1.0,0.0,27,0.00,,,0.00,WeatherTracker,2013-10-04 07:53:00,
2013-10-04 00:59:00,67.9,33.6,29.98,NE,53,5.0,0.0,28,0.00,,,0.00,WeatherTracker,2013-10-04 07:59:00,
2013-10-04 01:04:00,67.6,33.3,29.98,NE,47,5.0,0.0,28,0.00,,,0.00,WeatherTracker,2013-10-04 08:04:00,
2013-10-04 01:09:00,67.4,33.2,29.98,NE,41,2.0,0.0,28,0.00,,,0.00,WeatherTracker,2013-10-04 08:09:00,
2013-10-04 01:14:00,67.2,33.0,29.99,NNE,17,3.0,0.0,28,0.00,,,0.00,WeatherTracker,2013-10-04 08:14:00,
2013-10-04 01:19:00,67.1,32.9,29.99,NE,49,3.0,0.0,28,0.00,,,0.00,WeatherTracker,2013-10-04 08:19:00,
2013-10-04 01:24:00,67.1,32.9,29.99,ENE,57,1.0,0.0,28,0.00,,,0.00,WeatherTracker,2013-10-04 08:24:00,
2013-10-04 01:29:00,66.9,32.7,29.99,NE,38,6.0,0.0,28,0.00,,,0.00,WeatherTracker,2013-10-04 08:29:00,
2013-10-04 01:34:00,67.0,32.8,29.99,NE,42,2.0,0.0,28,0.00,,,0.00,WeatherTracker,2013-10-04 08:34:00,
2013-10-04 01:39:00,67.0,32.8,29.99,NE,49,5.0,0.0,28,0.00,,,0.00,WeatherTracker,2013-10-04 08:39:00,
2013-10-04 01:44:00,66.9,32.7,29.99,NE,55,0.0,0.0,28,0.00,,,0.00,WeatherTracker,2013-10-04 08:44:00,
2013-10-04 01:49:00,66.7,32.6,30.00,NE,48,1.0,0.0,28,0.00,,,0.00,WeatherTracker,2013-10-04 08:49:00,
2013-10-04 01:54:00,66.6,32.5,30.00,NE,49,0.0,0.0,28,0.00,,,0.00,WeatherTracker,2013-10-04 08:54:00,
2013-10-04 01:59:00,66.4,33.2,30.00,ENE,74,2.0,0.0,29,0.00,,,0.00,WeatherTracker,2013-10-04 08:59:00,
2013-10-04 02:04:00,66.2,32.1,30.00,NNE,31,0.0,0.0,28,0.00,,,0.00,WeatherTracker,2013-10-04 09:04:00,
2013-10-04 02:09:00,66.0,32.0,30.00,NE,47,3.0,0.0,28,0.00,,,0.00,WeatherTracker,2013-10-04 09:09:00,
2013-10-04 02:14:00,66.0,32.0,30.00,North,350,0.0,0.0,28,0.00,,,0.00,WeatherTracker,2013-10-04 09:14:00,
2013-10-04 02:19:00,65.9,32.7,30.00,North,5,0.0,0.0,29,0.00,,,0.00,WeatherTracker,2013-10-04 09:19:00,
2013-10-04 02:24:00,65.7,32.6,30.00,NE,52,1.0,0.0,29,0.00,,,0.00,WeatherTracker,2013-10-04 09:24:00,
2013-10-04 02:29:00,65.7,32.6,30.00,NE,56,3.0,0.0,29,0.00,,,0.00,WeatherTracker,2013-10-04 09:29:00,
2013-10-04 02:34:00,65.7,32.6,30.00,NE,34,0.0,0.0,29,0.00,,,0.00,WeatherTracker,2013-10-04 09:34:00,
2013-10-04 02:39:00,65.6,32.5,29.99,NE,40,2.0,0.0,29,0.00,,,0.00,WeatherTracker,2013-10-04 09:39:00,
2013-10-04 02:44:00,65.6,32.5,29.99,NNE,28,1.0,0.0,29,0.00,,,0.00,WeatherTracker,2013-10-04 09:44:00,
2013-10-04 02:49:00,65.8,32.7,29.99,NNE,25,5.0,0.0,29,0.00,,,0.00,WeatherTracker,2013-10-04 09:49:00,
2013-10-04 02:54:00,65.8,32.7,29.99,ENE,73,4.0,0.0,29,0.00,,,0.00,WeatherTracker,2013-10-04 09:54:00,
2013-10-04 02:59:00,66.0,32.8,29.98,NE,51,2.0,0.0,29,0.00,,,0.00,WeatherTracker,2013-10-04 09:59:00,
2013-10-04 03:04:00,66.0,32.8,29.98,ENE,57,1.0,0.0,29,0.00,,,0.00,WeatherTracker,2013-10-04 10:04:00,
2013-10-04 03:10:00,66.0,32.0,29.98,NE,51,3.0,0.0,28,0.00,,,0.00,WeatherTracker,2013-10-04 10:10:00,
2013-10-04 03:15:00,66.0,32.0,29.98,West,274,2.0,0.0,28,0.00,,,0.00,WeatherTracker,2013-10-04 10:15:00,
2013-10-04 03:20:00,65.9,32.7,29.98,NE,52,4.0,0.0,29,0.00,,,0.00,WeatherTracker,2013-10-04 10:20:00,
2013-10-04 03:25:00,65.8,31.8,29.98,NE,45,0.0,0.0,28,0.00,,,0.00,WeatherTracker,2013-10-04 10:25:00,
2013-10-04 03:30:00,65.7,31.7,29.98,West,264,0.0,0.0,28,0.00,,,0.00,WeatherTracker,2013-10-04 10:30:00,
2013-10-04 03:35:00,65.7,31.7,29.98,NE,45,4.0,0.0,28,0.00,,,0.00,WeatherTracker,2013-10-04 10:35:00,
2013-10-04 03:40:00,65.6,32.5,29.98,NE,44,6.0,0.0,29,0.00,,,0.00,WeatherTracker,2013-10-04 10:40:00,
2013-10-04 03:45:00,65.6,31.6,29.98,West,261,3.0,0.0,28,0.00,,,0.00,WeatherTracker,2013-10-04 10:45:00,
2013-10-04 03:50:00,65.6,31.6,29.98,WNW,299,1.0,0.0,28,0.00,,,0.00,WeatherTracker,2013-10-04 10:50:00,
2013-10-04 03:55:00,65.5,31.5,29.98,NNE,27,4.0,0.0,28,0.00,,,0.00,WeatherTracker,2013-10-04 10:55:00,
2013-10-04 04:00:00,65.4,31.4,29.98,NE,40,2.0,0.0,28,0.00,,,0.00,WeatherTracker,2013-10-04 11:00:00,
2013-10-04 04:05:00,65.3,31.4,29.99,ENE,57,5.0,0.0,28,0.00,,,0.00,WeatherTracker,2013-10-04 11:05:00,
2013-10-04 04:10:00,65.3,31.4,29.99,NE,34,1.0,0.0,28,0.00,,,0.00,WeatherTracker,2013-10-04 11:10:00,
2013-10-04 04:15:00,65.2,31.3,29.99,NE,52,5.0,0.0,28,0.00,,,0.00,WeatherTracker,2013-10-04 11:15:00,
2013-10-04 04:20:00,65.2,31.3,29.99,NE,53,3.0,0.0,28,0.00,,,0.00,WeatherTracker,2013-10-04 11:20:00,
2013-10-04 04:25:00,65.2,31.3,29.99,NNW,338,3.0,0.0,28,0.00,,,0.00,WeatherTracker,2013-10-04 11:25:00,
2013-10-04 04:30:00,65.0,31.1,29.99,ENE,73,1.0,0.0,28,0.00,,,0.00,WeatherTracker,2013-10-04 11:30:00,
2013-10-04 04:35:00,65.1,31.2,29.99,NNW,342,2.0,0.0,28,0.00,,,0.00,WeatherTracker,2013-10-04 11:35:00,
2013-10-04 04:40:00,65.0,31.1,29.99,East,82,3.0,0.0,28,0.00,,,0.00,WeatherTracker,2013-10-04 11:40:00,
2013-10-04 04:45:00,65.0,31.1,29.99,NE,45,5.0,0.0,28,0.00,,,0.00,WeatherTracker,2013-10-04 11:45:00,
2013-10-04 04:50:00,64.9,31.0,30.00,NE,48,4.0,0.0,28,0.00,,,0.00,WeatherTracker,2013-10-04 11:50:00,
2013-10-04 04:55:00,64.9,31.0,30.00,NE,49,4.0,0.0,28,0.00,,,0.00,WeatherTracker,2013-10-04 11:55:00,
2013-10-04 05:00:00,64.9,31.9,30.00,WSW,254,3.0,0.0,29,0.00,,,0.00,WeatherTracker,2013-10-04 12:00:00,
2013-10-04 05:05:00,64.8,31.8,30.00,ENE,61,3.0,0.0,29,0.00,,,0.00,WeatherTracker,2013-10-04 12:05:00,
2013-10-04 05:10:00,64.7,31.7,30.00,North,355,1.0,0.0,29,0.00,,,0.00,WeatherTracker,2013-10-04 12:10:00,
2013-10-04 05:15:00,64.6,31.6,30.00,ENE,57,2.0,0.0,29,0.00,,,0.00,WeatherTracker,2013-10-04 12:15:00,
2013-10-04 05:20:00,64.5,32.4,30.01,NE,51,2.0,0.0,30,0.00,,,0.00,WeatherTracker,2013-10-04 12:20:00,
2013-10-04 05:25:00,64.3,32.2,30.01,NE,37,3.0,0.0,30,0.00,,,0.00,WeatherTracker,2013-10-04 12:25:00,
2013-10-04 05:30:00,64.2,32.1,30.01,NE,44,11.0,0.0,30,0.00,,,0.00,WeatherTracker,2013-10-04 12:30:00,
2013-10-04 05:36:00,64.2,32.1,30.01,NE,51,4.0,0.0,30,0.00,,,0.00,WeatherTracker,2013-10-04 12:36:00,
2013-10-04 05:41:00,64.1,32.0,30.01,NE,44,1.0,0.0,30,0.00,,,0.00,WeatherTracker,2013-10-04 12:41:00,
2013-10-04 05:46:00,64.0,31.9,30.01,NE,49,4.0,0.0,30,0.00,,,0.00,WeatherTracker,2013-10-04 12:46:00,
2013-10-04 05:51:00,63.9,31.9,30.01,ENE,70,2.0,0.0,30,0.00,,,0.00,WeatherTracker,2013-10-04 12:51:00,
2013-10-04 05:56:00,63.8,31.8,30.01,NE,44,6.0,0.0,30,0.00,,,0.00,WeatherTracker,2013-10-04 12:56:00,
2013-10-04 06:01:00,63.8,31.8,30.01,NE,49,1.0,0.0,30,0.00,,,0.00,WeatherTracker,2013-10-04 13:01:00,
2013-10-04 06:06:00,63.7,32.5,30.02,ENE,63,1.0,0.0,31,0.00,,,0.00,WeatherTracker,2013-10-04 13:06:00,
2013-10-04 06:11:00,63.5,32.3,30.02,ENE,63,0.0,0.0,31,0.00,,,0.00,WeatherTracker,2013-10-04 13:11:00,
2013-10-04 06:16:00,63.4,32.2,30.02,ENE,63,0.0,0.0,31,0.00,,,0.00,WeatherTracker,2013-10-04 13:16:00,
2013-10-04 06:21:00,63.2,32.9,30.02,ENE,63,0.0,0.0,32,0.00,,,0.00,WeatherTracker,2013-10-04 13:21:00,
2013-10-04 06:26:00,63.0,32.7,30.02,ENE,63,2.0,0.0,32,0.00,,,0.00,WeatherTracker,2013-10-04 13:26:00,
2013-10-04 06:31:00,62.7,32.4,30.02,ENE,63,0.0,0.0,32,0.00,,,0.00,WeatherTracker,2013-10-04 13:31:00,
2013-10-04 06:36:00,62.4,32.2,30.03,ENE,63,0.0,0.0,32,0.00,,,0.00,WeatherTracker,2013-10-04 13:36:00,
2013-10-04 06:41:00,62.3,32.8,30.03,ENE,63,0.0,0.0,33,0.00,,,0.00,WeatherTracker,2013-10-04 13:41:00,
2013-10-04 06:46:00,61.9,31.7,30.03,ENE,63,0.0,0.0,32,0.00,,,0.00,WeatherTracker,2013-10-04 13:46:00,
2013-10-04 06:51:00,61.7,32.3,30.03,ENE,63,0.0,0.0,33,0.00,,,0.00,WeatherTracker,2013-10-04 13:51:00,
2013-10-04 06:56:00,61.6,33.0,30.03,ENE,63,0.0,0.0,34,0.00,,,0.00,WeatherTracker,2013-10-04 13:56:00,
2013-10-04 07:01:00,61.3,32.7,30.03,ENE,63,0.0,0.0,34,0.00,,,0.00,WeatherTracker,2013-10-04 14:01:00,
2013-10-04 07:06:00,61.0,32.4,30.04,ENE,63,0.0,0.0,34,0.00,,,0.00,WeatherTracker,2013-10-04 14:06:00,
2013-10-04 07:11:00,60.7,32.9,30.04,ENE,63,0.0,0.0,35,0.00,,,0.00,WeatherTracker,2013-10-04 14:11:00,
2013-10-04 07:16:00,60.4,33.3,30.04,ENE,63,0.0,0.0,36,0.00,,,0.00,WeatherTracker,2013-10-04 14:16:00,
2013-10-04 07:21:00,59.8,34.1,30.04,ENE,63,0.0,0.0,38,0.00,,,0.00,WeatherTracker,2013-10-04 14:21:00,
2013-10-04 07:26:00,59.1,33.5,30.04,ENE,63,0.0,0.0,38,0.00,,,0.00,WeatherTracker,2013-10-04 14:26:00,
2013-10-04 07:32:00,59.0,34.7,30.04,ENE,63,0.0,0.0,40,0.00,,,0.00,WeatherTracker,2013-10-04 14:32:00,
2013-10-04 07:37:00,58.2,34.6,30.04,ENE,63,0.0,0.0,41,0.00,,,0.00,WeatherTracker,2013-10-04 14:37:00,
2013-10-04 07:42:00,58.0,35.0,30.05,ENE,63,0.0,0.0,42,0.00,,,0.00,WeatherTracker,2013-10-04 14:42:00,
2013-10-04 07:47:00,57.7,34.8,30.05,ENE,63,0.0,0.0,42,0.00,,,0.00,WeatherTracker,2013-10-04 14:47:00,
2013-10-04 07:52:00,58.2,35.2,30.05,ENE,63,0.0,0.0,42,0.00,,,0.00,WeatherTracker,2013-10-04 14:52:00,
2013-10-04 07:57:00,59.0,35.3,30.05,ENE,63,0.0,0.0,41,0.00,,,0.00,WeatherTracker,2013-10-04 14:57:00,
2013-10-04 08:02:00,60.2,35.2,30.05,ENE,63,0.0,0.0,39,0.00,,,0.00,WeatherTracker,2013-10-04 15:02:00,
2013-10-04 08:07:00,61.3,34.1,30.05,ENE,63,0.0,0.0,36,0.00,,,0.00,WeatherTracker,2013-10-04 15:07:00,
2013-10-04 08:12:00,62.0,34.0,30.05,ENE,63,0.0,0.0,35,0.00,,,0.00,WeatherTracker,2013-10-04 15:12:00,
2013-10-04 08:17:00,61.8,35.3,30.06,ENE,63,0.0,0.0,37,0.00,,,0.00,WeatherTracker,2013-10-04 15:17:00,
2013-10-04 08:22:00,62.1,35.5,30.06,ENE,63,1.0,0.0,37,0.00,,,0.00,WeatherTracker,2013-10-04 15:22:00,
2013-10-04 08:27:00,62.9,36.2,30.06,ENE,63,0.0,0.0,37,0.00,,,0.00,WeatherTracker,2013-10-04 15:27:00,
2013-10-04 08:32:00,63.7,35.5,30.06,ENE,63,0.0,0.0,35,0.00,,,0.00,WeatherTracker,2013-10-04 15:32:00,
2013-10-04 08:37:00,64.3,36.8,30.06,ENE,63,0.0,0.0,36,0.00,,,0.00,WeatherTracker,2013-10-04 15:37:00,
2013-10-04 08:42:00,64.4,35.4,30.06,ENE,63,0.0,0.0,34,0.00,,,0.00,WeatherTracker,2013-10-04 15:42:00,
2013-10-04 08:47:00,65.0,34.4,30.06,NE,49,2.0,0.0,32,0.00,,,0.00,WeatherTracker,2013-10-04 15:47:00,
2013-10-04 08:52:00,65.6,33.3,30.06,NE,42,4.0,0.0,30,0.00,,,0.00,WeatherTracker,2013-10-04 15:52:00,
2013-10-04 08:57:00,66.1,33.8,30.07,NE,50,0.0,0.0,30,0.00,,,0.00,WeatherTracker,2013-10-04 15:57:00,
2013-10-04 09:02:00,66.7,33.4,30.07,ENE,57,2.0,0.0,29,0.00,,,0.00,WeatherTracker,2013-10-04 16:02:00,
2013-10-04 09:07:00,67.2,33.0,30.07,NE,40,3.0,0.0,28,0.00,,,0.00,WeatherTracker,2013-10-04 16:07:00,
2013-10-04 09:12:00,67.7,33.4,30.07,NE,36,1.0,0.0,28,0.00,,,0.00,WeatherTracker,2013-10-04 16:12:00,
2013-10-04 09:17:00,68.1,32.9,30.07,NE,36,1.0,0.0,27,0.00,,,0.00,WeatherTracker,2013-10-04 16:17:00,
2013-10-04 09:22:00,68.5,33.2,30.07,NE,40,3.0,0.0,27,0.00,,,0.00,WeatherTracker,2013-10-04 16:22:00,
2013-10-04 09:27:00,68.8,33.5,30.08,East,91,0.0,0.0,27,0.00,,,0.00,WeatherTracker,2013-10-04 16:27:00,
2013-10-04 09:32:00,69.4,32.0,30.08,NE,53,0.0,0.0,25,0.00,,,0.00,WeatherTracker,2013-10-04 16:32:00,
2013-10-04 09:37:00,69.5,33.1,30.08,NE,41,2.0,0.0,26,0.00,,,0.00,WeatherTracker,2013-10-04 16:37:00,
2013-10-04 09:42:00,70.1,33.6,30.08,NE,43,0.0,0.0,26,0.00,,,0.00,WeatherTracker,2013-10-04 16:42:00,
2013-10-04 09:47:00,70.4,33.9,30.08,NE,38,2.0,0.0,26,0.00,,,0.00,WeatherTracker,2013-10-04 16:47:00,
2013-10-04 09:52:00,70.7,33.1,30.08,ENE,69,1.0,0.0,25,0.00,,,0.00,WeatherTracker,2013-10-04 16:52:00,
2013-10-04 09:57:00,71.2,33.6,30.08,NE,40,3.0,0.0,25,0.00,,,0.00,WeatherTracker,2013-10-04 16:57:00,
2013-10-04 10:02:00,71.1,33.5,30.08,NE,52,1.0,0.0,25,0.00,,,0.00,WeatherTracker,2013-10-04 17:02:00,
2013-10-04 10:07:00,71.9,33.1,30.08,NNE,15,10.0,0.0,24,0.00,,,0.00,WeatherTracker,2013-10-04 17:07:00,
2013-10-04 10:12:00,71.8,33.1,30.08,NNE,33,6.0,0.0,24,0.00,,,0.00,WeatherTracker,2013-10-04 17:12:00,
2013-10-04 10:17:00,71.9,33.1,30.08,NE,37,6.0,0.0,24,0.00,,,0.00,WeatherTracker,2013-10-04 17:17:00,
2013-10-04 10:22:00,72.3,32.4,30.08,NE,48,6.0,0.0,23,0.00,,,0.00,WeatherTracker,2013-10-04 17:22:00,
2013-10-04 10:27:00,72.9,32.9,30.08,ENE,67,5.0,0.0,23,0.00,,,0.00,WeatherTracker,2013-10-04 17:27:00,
2013-10-04 10:32:00,72.8,31.7,30.09,NNE,24,9.0,0.0,22,0.00,,,0.00,WeatherTracker,2013-10-04 17:32:00,
2013-10-04 10:37:00,73.0,31.9,30.09,ENE,57,4.0,0.0,22,0.00,,,0.00,WeatherTracker,2013-10-04 17:37:00,
2013-10-04 11:03:00,73.6,32.4,30.09,ENE,57,7.0,0.0,22,0.00,,,0.00,WeatherTracker,2013-10-04 18:03:00,
2013-10-04 11:08:00,73.6,32.4,30.09,NNE,30,5.0,0.0,22,0.00,,,0.00,WeatherTracker,2013-10-04 18:08:00,
2013-10-04 11:13:00,73.5,31.2,30.09,ENE,65,14.0,0.0,21,0.00,,,0.00,WeatherTracker,2013-10-04 18:13:00,
2013-10-04 11:18:00,73.6,32.4,30.09,NE,36,6.0,0.0,22,0.00,,,0.00,WeatherTracker,2013-10-04 18:18:00,
2013-10-04 11:23:00,73.4,32.2,30.08,SE,130,5.0,0.0,22,0.00,,,0.00,WeatherTracker,2013-10-04 18:23:00,
2013-10-04 11:28:00,73.7,32.5,30.09,NE,45,8.0,0.0,22,0.00,,,0.00,WeatherTracker,2013-10-04 18:28:00,
2013-10-04 11:33:00,74.0,32.7,30.08,ENE,76,5.0,0.0,22,0.00,,,0.00,WeatherTracker,2013-10-04 18:33:00,
2013-10-04 11:38:00,73.9,32.7,30.08,NNE,14,10.0,0.0,22,0.00,,,0.00,WeatherTracker,2013-10-04 18:38:00,
2013-10-04 11:43:00,73.9,32.7,30.08,East,99,7.0,0.0,22,0.00,,,0.00,WeatherTracker,2013-10-04 18:43:00,
2013-10-04 11:48:00,73.9,32.7,30.08,ENE,76,11.0,0.0,22,0.00,,,0.00,WeatherTracker,2013-10-04 18:48:00,
2013-10-04 11:53:00,74.4,33.1,30.09,NNE,28,4.0,0.0,22,0.00,,,0.00,WeatherTracker,2013-10-04 18:53:00,
2013-10-04 11:58:00,74.5,33.1,30.09,NNE,28,4.0,0.0,22,0.00,,,0.00,WeatherTracker,2013-10-04 18:58:00,
2013-10-04 12:03:00,74.9,33.5,30.09,ENE,65,2.0,0.0,22,0.00,,,0.00,WeatherTracker,2013-10-04 19:03:00,
2013-10-04 12:08:00,75.4,33.9,30.09,East,86,1.0,0.0,22,0.00,,,0.00,WeatherTracker,2013-10-04 19:08:00,
2013-10-04 12:13:00,75.0,33.6,30.09,NE,52,2.0,0.0,22,0.00,,,0.00,WeatherTracker,2013-10-04 19:13:00,
2013-10-04 12:18:00,75.2,33.7,30.08,NE,46,6.0,0.0,22,0.00,,,0.00,WeatherTracker,2013-10-04 19:18:00,
2013-10-04 12:23:00,75.2,33.7,30.08,NE,40,6.0,0.0,22,0.00,,,0.00,WeatherTracker,2013-10-04 19:23:00,
2013-10-04 12:28:00,75.4,33.9,30.08,ESE,119,5.0,0.0,22,0.00,,,0.00,WeatherTracker,2013-10-04 19:28:00,
2013-10-04 12:34:00,75.7,34.1,30.08,NE,37,4.0,0.0,22,0.00,,,0.00,WeatherTracker,2013-10-04 19:34:00,
2013-10-04 12:39:00,75.9,34.3,30.08,NNE,33,0.0,0.0,22,0.00,,,0.00,WeatherTracker,2013-10-04 19:39:00,
2013-10-04 12:44:00,76.1,34.5,30.08,NE,47,7.0,0.0,22,0.00,,,0.00,WeatherTracker,2013-10-04 19:44:00,
2013-10-04 12:49:00,75.7,34.1,30.08,NE,38,7.0,0.0,22,0.00,,,0.00,WeatherTracker,2013-10-04 19:49:00,
2013-10-04 12:54:00,76.3,33.5,30.08,ENE,76,2.0,0.0,21,0.00,,,0.00,WeatherTracker,2013-10-04 19:54:00,
2013-10-04 12:59:00,77.0,34.1,30.08,ENE,65,3.0,0.0,21,0.00,,,0.00,WeatherTracker,2013-10-04 19:59:00,
2013-10-04 13:04:00,76.7,35.0,30.08,NNE,20,4.0,0.0,22,0.00,,,0.00,WeatherTracker,2013-10-04 20:04:00,
2013-10-04 13:09:00,76.9,35.1,30.08,NE,45,4.0,0.0,22,0.00,,,0.00,WeatherTracker,2013-10-04 20:09:00,
2013-10-04 13:14:00,77.0,35.2,30.08,ESE,115,2.0,0.0,22,0.00,,,0.00,WeatherTracker,2013-10-04 20:14:00,
2013-10-04 13:19:00,77.4,33.2,30.08,East,97,4.0,0.0,20,0.00,,,0.00,WeatherTracker,2013-10-04 20:19:00,
2013-10-04 13:24:00,77.6,34.6,30.07,East,84,1.0,0.0,21,0.00,,,0.00,WeatherTracker,2013-10-04 20:24:00,
2013-10-04 13:29:00,77.5,34.5,30.07,East,98,5.0,0.0,21,0.00,,,0.00,WeatherTracker,2013-10-04 20:29:00,
2013-10-04 13:34:00,77.5,34.5,30.07,East,98,4.0,0.0,21,0.00,,,0.00,WeatherTracker,2013-10-04 20:34:00,
2013-10-04 13:39:00,78.2,33.8,30.07,East,91,11.0,0.0,20,0.00,,,0.00,WeatherTracker,2013-10-04 20:39:00,
2013-10-04 13:44:00,78.2,33.8,30.07,NNE,30,3.0,0.0,20,0.00,,,0.00,WeatherTracker,2013-10-04 20:44:00,
2013-10-04 13:49:00,77.9,33.6,30.07,ENE,76,0.0,0.0,20,0.00,,,0.00,WeatherTracker,2013-10-04 20:49:00,
2013-10-04 13:54:00,78.7,33.0,30.07,NE,44,1.0,0.0,19,0.00,,,0.00,WeatherTracker,2013-10-04 20:54:00,
2013-10-04 13:59:00,79.0,33.2,30.07,ENE,71,2.0,0.0,19,0.00,,,0.00,WeatherTracker,2013-10-04 20:59:00,
2013-10-04 14:04:00,78.6,35.4,30.06,ESE,109,2.0,0.0,21,0.00,,,0.00,WeatherTracker,2013-10-04 21:04:00,
2013-10-04 14:09:00,79.4,34.8,30.06,NE,34,4.0,0.0,20,0.00,,,0.00,WeatherTracker,2013-10-04 21:09:00,
2013-10-04 14:14:00,78.9,33.1,30.06,NE,38,3.0,0.0,19,0.00,,,0.00,WeatherTracker,2013-10-04 21:14:00,
2013-10-04 14:19:00,78.9,34.4,30.06,ENE,58,4.0,0.0,20,0.00,,,0.00,WeatherTracker,2013-10-04 21:19:00,
2013-10-04 14:24:00,79.0,34.5,30.06,NE,52,4.0,0.0,20,0.00,,,0.00,WeatherTracker,2013-10-04 21:24:00,
2013-10-04 14:29:00,79.3,34.7,30.06,ESE,119,2.0,0.0,20,0.00,,,0.00,WeatherTracker,2013-10-04 21:29:00,
2013-10-04 14:34:00,79.1,34.6,30.06,NNE,16,2.0,0.0,20,0.00,,,0.00,WeatherTracker,2013-10-04 21:34:00,
2013-10-04 14:39:00,79.0,34.5,30.06,East,82,4.0,0.0,20,0.00,,,0.00,WeatherTracker,2013-10-04 21:39:00,
2013-10-04 14:45:00,78.7,33.0,30.06,NE,39,8.0,0.0,19,0.00,,,0.00,WeatherTracker,2013-10-04 21:45:00,
2013-10-04 14:50:00,78.7,33.0,30.05,SE,130,1.0,0.0,19,0.00,,,0.00,WeatherTracker,2013-10-04 21:50:00,
2013-10-04 14:55:00,79.3,33.5,30.05,East,91,3.0,0.0,19,0.00,,,0.00,WeatherTracker,2013-10-04 21:55:00,
2013-10-04 15:00:00,78.8,33.0,30.06,NNE,30,7.0,0.0,19,0.00,,,0.00,WeatherTracker,2013-10-04 22:00:00,
2013-10-04 15:05:00,78.8,34.3,30.06,East,85,4.0,0.0,20,0.00,,,0.00,WeatherTracker,2013-10-04 22:05:00,
2013-10-04 15:10:00,78.8,33.0,30.05,NE,44,3.0,0.0,19,0.00,,,0.00,WeatherTracker,2013-10-04 22:10:00,
2013-10-04 15:15:00,78.8,33.0,30.05,ESE,119,1.0,0.0,19,0.00,,,0.00,WeatherTracker,2013-10-04 22:15:00,
2013-10-04 15:20:00,79.2,33.4,30.06,NE,48,4.0,0.0,19,0.00,,,0.00,WeatherTracker,2013-10-04 22:20:00,
2013-10-04 15:25:00,78.9,34.4,30.05,NE,34,4.0,0.0,20,0.00,,,0.00,WeatherTracker,2013-10-04 22:25:00,
2013-10-04 15:30:00,79.4,33.5,30.05,NNE,24,6.0,0.0,19,0.00,,,0.00,WeatherTracker,2013-10-04 22:30:00,
2013-10-04 15:35:00,79.5,34.9,30.05,NE,37,3.0,0.0,20,0.00,,,0.00,WeatherTracker,2013-10-04 22:35:00,
2013-10-04 15:40:00,80.0,34.0,30.05,NNE,31,6.0,0.0,19,0.00,,,0.00,WeatherTracker,2013-10-04 22:40:00,
2013-10-04 15:45:00,79.9,32.6,30.05,NNE,25,4.0,0.0,18,0.00,,,0.00,WeatherTracker,2013-10-04 22:45:00,
2013-10-04 15:50:00,79.6,33.7,30.05,NNE,28,9.0,0.0,19,0.00,,,0.00,WeatherTracker,2013-10-04 22:50:00,
2013-10-04 15:55:00,79.8,33.9,30.05,NNE,26,3.0,0.0,19,0.00,,,0.00,WeatherTracker,2013-10-04 22:55:00,
2013-10-04 16:00:00,80.2,34.2,30.05,NNE,29,2.0,0.0,19,0.00,,,0.00,WeatherTracker,2013-10-04 23:00:00,
2013-10-04 16:05:00,80.1,34.1,30.05,NE,55,1.0,0.0,19,0.00,,,0.00,WeatherTracker,2013-10-04 23:05:00,
2013-10-04 16:10:00,80.4,34.3,30.05,NNE,26,0.0,0.0,19,0.00,,,0.00,WeatherTracker,2013-10-04 23:10:00,
2013-10-04 16:15:00,80.5,33.1,30.05,NE,51,3.0,0.0,18,0.00,,,0.00,WeatherTracker,2013-10-04 23:15:00,
2013-10-04 16:20:00,80.2,32.8,30.04,NE,49,2.0,0.0,18,0.00,,,0.00,WeatherTracker,2013-10-04 23:20:00,
2013-10-04 16:26:00,80.3,32.9,30.04,East,84,1.0,0.0,18,0.00,,,0.00,WeatherTracker,2013-10-04 23:26:00,
2013-10-04 16:31:00,80.5,31.7,30.04,NE,42,6.0,0.0,17,0.00,,,0.00,WeatherTracker,2013-10-04 23:31:00,
2013-10-04 16:36:00,80.3,31.5,30.04,NE,49,4.0,0.0,17,0.00,,,0.00,WeatherTracker,2013-10-04 23:36:00,
2013-10-04 16:41:00,80.4,33.0,30.04,NE,56,2.0,0.0,18,0.00,,,0.00,WeatherTracker,2013-10-04 23:41:00,
2013-10-04 16:46:00,80.5,33.1,30.04,ESE,105,3.0,0.0,18,0.00,,,0.00,WeatherTracker,2013-10-04 23:46:00,
2013-10-04 16:51:00,80.4,33.0,30.04,NE,51,3.0,0.0,18,0.00,,,0.00,WeatherTracker,2013-10-04 23:51:00,
2013-10-04 16:56:00,80.1,32.8,30.05,ENE,61,5.0,0.0,18,0.00,,,0.00,WeatherTracker,2013-10-04 23:56:00,
2013-10-04 17:01:00,80.2,32.8,30.05,ENE,71,0.0,0.0,18,0.00,,,0.00,WeatherTracker,2013-10-05 00:01:00,
2013-10-04 17:06:00,80.2,32.8,30.04,NE,46,2.0,0.0,18,0.00,,,0.00,WeatherTracker,2013-10-05 00:06:00,
2013-10-04 17:11:00,80.0,32.7,30.04,NE,51,0.0,0.0,18,0.00,,,0.00,WeatherTracker,2013-10-05 00:11:00,
2013-10-04 17:16:00,80.1,32.8,30.04,NE,36,3.0,0.0,18,0.00,,,0.00,WeatherTracker,2013-10-05 00:16:00,
2013-10-04 17:21:00,80.0,32.7,30.04,NNE,30,2.0,0.0,18,0.00,,,0.00,WeatherTracker,2013-10-05 00:21:00,
2013-10-04 17:26:00,79.9,32.6,30.04,NE,37,4.0,0.0,18,0.00,,,0.00,WeatherTracker,2013-10-05 00:26:00,
2013-10-04 17:31:00,79.8,32.5,30.04,NE,48,4.0,0.0,18,0.00,,,0.00,WeatherTracker,2013-10-05 00:31:00,
2013-10-04 17:36:00,79.7,32.4,30.04,NE,41,4.0,0.0,18,0.00,,,0.00,WeatherTracker,2013-10-05 00:36:00,
2013-10-04 17:41:00,79.6,32.3,30.04,NNE,33,4.0,0.0,18,0.00,,,0.00,WeatherTracker,2013-10-05 00:41:00,
2013-10-04 17:46:00,79.5,32.3,30.04,NE,49,1.0,0.0,18,0.00,,,0.00,WeatherTracker,2013-10-05 00:46:00,
2013-10-04 17:51:00,79.4,33.5,30.04,East,92,0.0,0.0,19,0.00,,,0.00,WeatherTracker,2013-10-05 00:51:00,
2013-10-04 17:56:00,79.4,32.2,30.04,NE,48,0.0,0.0,18,0.00,,,0.00,WeatherTracker,2013-10-05 00:56:00,
2013-10-04 18:02:00,79.3,32.1,30.04,NNE,26,3.0,0.0,18,0.00,,,0.00,WeatherTracker,2013-10-05 01:02:00,
2013-10-04 18:07:00,79.2,32.0,30.04,ESE,109,1.0,0.0,18,0.00,,,0.00,WeatherTracker,2013-10-05 01:07:00,
2013-10-04 18:12:00,79.1,33.3,30.04,NE,51,1.0,0.0,19,0.00,,,0.00,WeatherTracker,2013-10-05 01:12:00,
2013-10-04 18:17:00,78.9,33.1,30.04,East,80,1.0,0.0,19,0.00,,,0.00,WeatherTracker,2013-10-05 01:17:00,
2013-10-04 18:22:00,78.8,33.0,30.04,East,80,1.0,0.0,19,0.00,,,0.00,WeatherTracker,2013-10-05 01:22:00,
2013-10-04 18:27:00,78.7,34.2,30.04,East,81,0.0,0.0,20,0.00,,,0.00,WeatherTracker,2013-10-05 01:27:00,
2013-10-04 18:32:00,78.6,34.2,30.05,East,80,0.0,0.0,20,0.00,,,0.00,WeatherTracker,2013-10-05 01:32:00,
2013-10-04 18:37:00,78.3,33.9,30.04,East,80,0.0,0.0,20,0.00,,,0.00,WeatherTracker,2013-10-05 01:37:00,
2013-10-04 18:42:00,78.0,33.7,30.04,East,81,0.0,0.0,20,0.00,,,0.00,WeatherTracker,2013-10-05 01:42:00,
2013-10-04 18:47:00,77.6,34.6,30.05,East,81,0.0,0.0,21,0.00,,,0.00,WeatherTracker,2013-10-05 01:47:00,
2013-10-04 18:52:00,77.2,34.2,30.05,East,101,0.0,0.0,21,0.00,,,0.00,WeatherTracker,2013-10-05 01:52:00,
2013-10-04 18:57:00,76.9,34.0,30.05,East,101,0.0,0.0,21,0.00,,,0.00,WeatherTracker,2013-10-05 01:57:00,
2013-10-04 19:02:00,76.6,34.9,30.05,East,101,0.0,0.0,22,0.00,,,0.00,WeatherTracker,2013-10-05 02:02:00,
2013-10-04 19:07:00,76.3,34.6,30.05,East,101,0.0,0.0,22,0.00,,,0.00,WeatherTracker,2013-10-05 02:07:00,
2013-10-04 19:12:00,76.0,35.5,30.05,East,101,0.0,0.0,23,0.00,,,0.00,WeatherTracker,2013-10-05 02:12:00,
2013-10-04 19:17:00,75.6,39.2,30.05,East,101,0.0,0.0,27,0.00,,,0.00,WeatherTracker,2013-10-05 02:17:00,
2013-10-04 19:22:00,75.0,40.6,30.05,East,101,0.0,0.0,29,0.00,,,0.00,WeatherTracker,2013-10-05 02:22:00,
2013-10-04 19:27:00,74.4,40.9,30.06,East,101,0.0,0.0,30,0.00,,,0.00,WeatherTracker,2013-10-05 02:27:00,
2013-10-04 19:32:00,73.9,40.5,30.06,East,101,0.0,0.0,30,0.00,,,0.00,WeatherTracker,2013-10-05 02:32:00,
2013-10-04 19:37:00,73.6,41.1,30.06,East,101,0.0,0.0,31,0.00,,,0.00,WeatherTracker,2013-10-05 02:37:00,
2013-10-04 19:42:00,73.1,40.7,30.06,East,101,0.0,0.0,31,0.00,,,0.00,WeatherTracker,2013-10-05 02:42:00,
2013-10-04 19:47:00,72.5,45.4,30.06,East,101,0.0,0.0,38,0.00,,,0.00,WeatherTracker,2013-10-05 02:47:00,
2013-10-04 19:52:00,71.9,46.9,30.06,East,101,0.0,0.0,41,0.00,,,0.00,WeatherTracker,2013-10-05 02:52:00,
2013-10-04 19:57:00,71.3,47.6,30.06,East,101,0.0,0.0,43,0.00,,,0.00,WeatherTracker,2013-10-05 02:57:00,
2013-10-04 20:02:00,70.7,47.7,30.07,East,101,0.0,0.0,44,0.00,,,0.00,WeatherTracker,2013-10-05 03:02:00,
2013-10-04 20:07:00,70.0,47.1,30.07,East,101,0.0,0.0,44,0.00,,,0.00,WeatherTracker,2013-10-05 03:07:00,
2013-10-04 20:13:00,69.5,46.6,30.07,East,101,0.0,0.0,44,0.00,,,0.00,WeatherTracker,2013-10-05 03:13:00,
2013-10-04 20:18:00,69.0,47.3,30.07,East,101,0.0,0.0,46,0.00,,,0.00,WeatherTracker,2013-10-05 03:18:00,
2013-10-04 20:23:00,68.5,46.9,30.07,East,101,0.0,0.0,46,0.00,,,0.00,WeatherTracker,2013-10-05 03:23:00,
2013-10-04 20:28:00,68.0,48.1,30.07,East,101,0.0,0.0,49,0.00,,,0.00,WeatherTracker,2013-10-05 03:28:00,
2013-10-04 20:33:00,67.6,48.8,30.07,East,101,0.0,0.0,51,0.00,,,0.00,WeatherTracker,2013-10-05 03:33:00,
2013-10-04 20:38:00,67.1,48.9,30.07,East,101,0.0,0.0,52,0.00,,,0.00,WeatherTracker,2013-10-05 03:38:00,
2013-10-04 20:43:00,66.5,48.8,30.07,East,101,0.0,0.0,53,0.00,,,0.00,WeatherTracker,2013-10-05 03:43:00,
2013-10-04 20:48:00,66.2,48.6,30.07,East,101,0.0,0.0,53,0.00,,,0.00,WeatherTracker,2013-10-05 03:48:00,
2013-10-04 20:53:00,65.8,48.2,30.08,East,101,0.0,0.0,53,0.00,,,0.00,WeatherTracker,2013-10-05 03:53:00,
2013-10-04 20:58:00,65.4,47.8,30.08,East,101,0.0,0.0,53,0.00,,,0.00,WeatherTracker,2013-10-05 03:58:00,
2013-10-04 21:01:00,65.2,47.6,30.08,East,101,0.0,0.0,53,0.00,,,0.00,WeatherTracker,2013-10-05 04:01:00,
2013-10-04 21:04:00,65.0,47.4,30.08,East,101,0.0,0.0,53,0.00,,,0.00,WeatherTracker,2013-10-05 04:04:00,
2013-10-04 21:09:00,64.7,48.2,30.08,East,101,0.0,0.0,55,0.00,,,0.00,WeatherTracker,2013-10-05 04:09:00,
2013-10-04 21:14:00,64.1,48.1,30.08,East,101,0.0,0.0,56,0.00,,,0.00,WeatherTracker,2013-10-05 04:14:00,
2013-10-04 21:19:00,63.6,47.6,30.08,East,101,0.0,0.0,56,0.00,,,0.00,WeatherTracker,2013-10-05 04:19:00,
2013-10-04 21:24:00,63.3,47.8,30.08,East,101,0.0,0.0,57,0.00,,,0.00,WeatherTracker,2013-10-05 04:24:00,
2013-10-04 21:29:00,62.9,47.4,30.08,East,101,0.0,0.0,57,0.00,,,0.00,WeatherTracker,2013-10-05 04:29:00,
2013-10-04 21:34:00,62.7,47.2,30.09,East,101,0.0,0.0,57,0.00,,,0.00,WeatherTracker,2013-10-05 04:34:00,
2013-10-04 21:39:00,62.4,46.5,30.09,East,101,0.0,0.0,56,0.00,,,0.00,WeatherTracker,2013-10-05 04:39:00,
2013-10-04 21:44:00,62.2,46.8,30.09,East,101,0.0,0.0,57,0.00,,,0.00,WeatherTracker,2013-10-05 04:44:00,
2013-10-04 21:49:00,62.0,46.6,30.09,East,101,0.0,0.0,57,0.00,,,0.00,WeatherTracker,2013-10-05 04:49:00,
2013-10-04 21:55:00,61.8,46.4,30.09,East,101,0.0,0.0,57,0.00,,,0.00,WeatherTracker,2013-10-05 04:55:00,
2013-10-04 22:00:00,61.6,47.6,30.09,East,101,0.0,0.0,60,0.00,,,0.00,WeatherTracker,2013-10-05 05:00:00,
2013-10-04 22:05:00,61.4,46.0,30.09,East,101,0.0,0.0,57,0.00,,,0.00,WeatherTracker,2013-10-05 05:05:00,
2013-10-04 22:10:00,61.1,45.7,30.09,East,101,0.0,0.0,57,0.00,,,0.00,WeatherTracker,2013-10-05 05:10:00,
2013-10-04 22:15:00,60.9,45.6,30.09,East,101,0.0,0.0,57,0.00,,,0.00,WeatherTracker,2013-10-05 05:15:00,
2013-10-04 22:20:00,60.8,45.0,30.09,East,101,0.0,0.0,56,0.00,,,0.00,WeatherTracker,2013-10-05 05:20:00,
2013-10-04 22:25:00,60.6,44.8,30.09,East,101,0.0,0.0,56,0.00,,,0.00,WeatherTracker,2013-10-05 05:25:00,
2013-10-04 22:30:00,60.3,44.5,30.09,East,101,0.0,0.0,56,0.00,,,0.00,WeatherTracker,2013-10-05 05:30:00,
2013-10-04 22:35:00,60.0,44.3,30.09,East,101,0.0,0.0,56,0.00,,,0.00,WeatherTracker,2013-10-05 05:35:00,
2013-10-04 22:40:00,59.9,44.2,30.09,East,101,0.0,0.0,56,0.00,,,0.00,WeatherTracker,2013-10-05 05:40:00,
2013-10-04 22:45:00,59.8,43.6,30.10,East,101,0.0,0.0,55,0.00,,,0.00,WeatherTracker,2013-10-05 05:45:00,
2013-10-04 22:50:00,59.6,42.9,30.10,East,101,0.0,0.0,54,0.00,,,0.00,WeatherTracker,2013-10-05 05:50:00,
2013-10-04 22:55:00,59.3,42.7,30.10,East,101,0.0,0.0,54,0.00,,,0.00,WeatherTracker,2013-10-05 05:55:00,
2013-10-04 23:00:00,59.1,42.5,30.10,East,101,0.0,0.0,54,0.00,,,0.00,WeatherTracker,2013-10-05 06:00:00,
2013-10-04 23:05:00,59.0,42.4,30.10,East,101,0.0,0.0,54,0.00,,,0.00,WeatherTracker,2013-10-05 06:05:00,
2013-10-04 23:10:00,59.0,41.9,30.10,East,101,0.0,0.0,53,0.00,,,0.00,WeatherTracker,2013-10-05 06:10:00,
2013-10-04 23:15:00,58.9,41.8,30.10,East,101,0.0,0.0,53,0.00,,,0.00,WeatherTracker,2013-10-05 06:15:00,
2013-10-04 23:20:00,58.7,41.6,30.10,East,101,0.0,0.0,53,0.00,,,0.00,WeatherTracker,2013-10-05 06:20:00,
2013-10-04 23:25:00,58.5,41.4,30.10,East,101,0.0,0.0,53,0.00,,,0.00,WeatherTracker,2013-10-05 06:25:00,
2013-10-04 23:30:00,58.3,41.2,30.10,East,101,0.0,0.0,53,0.00,,,0.00,WeatherTracker,2013-10-05 06:30:00,
2013-10-04 23:35:00,58.1,41.5,30.10,East,101,0.0,0.0,54,0.00,,,0.00,WeatherTracker,2013-10-05 06:35:00,
2013-10-04 23:41:00,57.9,41.4,30.10,East,101,0.0,0.0,54,0.00,,,0.00,WeatherTracker,2013-10-05 06:41:00,
2013-10-04 23:46:00,57.8,41.3,30.10,East,101,0.0,0.0,54,0.00,,,0.00,WeatherTracker,2013-10-05 06:46:00,
2013-10-04 23:51:00,57.6,41.1,30.11,East,101,0.0,0.0,54,0.00,,,0.00,WeatherTracker,2013-10-05 06:51:00,
2013-10-04 23:56:00,57.3,41.3,30.11,East,101,0.0,0.0,55,0.00,,,0.00,WeatherTracker,2013-10-05 06:56:00,